カタログに戻る

CZ-6A DEB

運用中PO
NORAD 55534·DEBRIS·🇨🇳 China

打ち上げ Nov 11, 2022 から Taiyuan Satellite Launch Center

Loading…

次のパス (今後24時間)

TLE

最新Source: Space-Track

元期: Sep 13, 2026, 19:14 UTC

1 55534U 22151YG  26256.80173957  .00041558  00000-0  28126-2 0  9998
2 55534  98.6415 352.2805 0034219 299.7515  60.0306 15.05895798199370

AllMySatでCZ-6A DEBをリアルタイム追跡

Download on the App Store